Location: Bothwell
(42.3833°S, 147.0000°E)
Time: 09:55:51
(UTC+10:00)

UNISAT 6 - Pass Details

Date: 11 August 2024
Orbit: 589 x 662 km, 97.7° (Epoch: 14 September)

Event Time Altitude Azimuth Distance (km) Brightness Sun altitude
Rises 04:02:12 0° 157° (SSE) 3,043 ? -35.0°
Reaches altitude 10° 04:04:44 10° 145° (SE) 2,123 ? -34.5°
Maximum altitude 04:08:45 29° 85° (E) 1,246 ? -33.8°
Enters shadow 04:08:47 29° 84° (E) 1,246 ? -33.8°
